Location: Whitehorse
(60.7170°N, 135.0500°W)
Time: 17:36:24
(UTC-07:00)

SL-16 R/B - Visible Passes

Search period start: 25 May 2016 00:00
Search period end: 04 June 2016 00:00
Orbit: 843 x 847 km, 71.0° (Epoch: 25 May)

Date Brightness Start Highest point End Pass type
(mag) Time Alt. Az. Time Alt. Az. Time Alt. Az.
25 May 3.4 00:54:40 10° WSW 01:00:08 47° NNW 01:05:39 10° NE visible
25 May 4.4 02:40:32 10° WNW 02:45:30 30° N 02:50:29 10° NE visible
26 May 3.4 00:40:35 10° WSW 00:46:04 48° NNW 00:51:35 10° NE visible
26 May 4.4 02:26:27 10° WNW 02:31:25 30° N 02:36:25 10° NE visible
27 May 3.4 00:26:30 10° WSW 00:32:01 49° NNW 00:37:31 10° NE visible
27 May 4.4 02:12:21 10° WNW 02:17:21 30° N 02:22:21 10° NE visible
28 May 4.4 01:58:17 10° WNW 02:03:16 30° N 02:08:16 10° NE visible
29 May 4.5 01:44:11 10° WNW 01:49:12 30° N 01:54:12 10° NE visible
30 May 4.5 01:30:07 10° WNW 01:35:06 31° N 01:40:07 10° NE visible
31 May 4.5 01:16:01 10° WNW 01:21:01 31° N 01:26:02 10° NE visible
31 May 4.3 03:01:30 10° NW 03:06:38 33° NNE 03:11:46 10° E visible
01 Jun 4.5 01:01:55 10° WNW 01:06:57 31° N 01:11:58 10° NE visible
01 Jun 4.3 02:47:26 10° NW 02:52:33 33° NNE 02:57:40 10° E visible
02 Jun 4.5 00:47:50 10° WNW 00:52:52 31° N 00:57:53 10° NE visible
02 Jun 4.3 02:33:21 10° NW 02:38:28 33° NNE 02:43:35 10° E visible
03 Jun 4.3 02:19:17 10° NW 02:24:24 33° NNE 02:29:30 10° E visible
